Wetbulb
69.16 69.44 68.91 68.40 68.01 68.89 68.01 66.72 66.12 63.31 63.17 63.09 64.49 66.31 65.93 66.13 64.70 64.75 64.47 63.43 64.13 65.35 64.74 64.40 64.40 64.46 64.14 63.47 63.21 62.78 62.32 61.44 60.77 60.46 60.56 60.68 60.01 60.11 60.03 59.53 58.84 58.58 58.07
69.38 68.53 67.60 66.97 66.44 68.37 67.65 67.59 65.37 63.54 63.04 62.89 65.21 66.49 64.41 64.94 64.97 65.47 64.48 64.37 62.56 63.63 64.29 64.78 64.71 64.45 63.80 63.54 62.40 61.67 61.06 60.68 60.39 60.44 60.16 60.30 59.87 59.36 59.39 58.90 58.04 57.67 57.32
68.84 67.84 66.52 65.85 66.41 68.59 67.26 66.61 65.42 63.42 63.34 64.39 65.10 65.07 63.88 64.59 64.37 64.03 64.03 64.12 63.26 61.46 63.01 64.41 64.69 64.15 63.52 63.10 62.22 61.46 61.24 61.14 60.96 60.60 60.08 59.86 59.71 59.01 58.86 58.40 57.58 57.17 57.11
68.52 68.01 67.01 66.82 67.38 66.96 65.71 64.69 63.24 61.86 62.18 62.59 62.36 64.16 63.47 63.39 63.56 64.34 63.59 64.05 63.75 63.09 62.01 62.66 63.55 63.93 63.72 62.78 62.42 61.77 61.25 60.64 60.99 60.82 59.79 59.83 59.50 58.96 58.38 58.00 57.53 56.81 56.76
68.08 67.31 66.65 66.80 67.54 66.12 63.63 62.64 61.88 61.39 61.18 61.22 62.07 63.69 62.02 62.50 62.90 62.00 63.38 63.64 63.61 62.31 61.96 61.58 61.62 61.81 62.51 62.86 61.95 61.54 61.63 61.01 60.50 60.36 60.18 59.38 59.31 59.04 58.41 57.75 57.41 56.83 56.39
67.92 67.29 66.43 66.22 66.05 64.02 62.42 61.07 60.43 61.31 61.16 61.06 61.69 61.24 62.01 63.03 62.57 62.35 61.97 63.23 62.61 61.99 62.76 62.46 62.43 61.27 60.43 61.86 62.20 61.51 61.74 61.46 60.90 60.59 60.22 59.67 59.11 58.74 58.47 57.97 57.37 56.98 56.51
67.26 66.60 66.01 63.24 61.97 60.19 59.81 59.81 59.77 59.30 59.80 60.84 59.31 59.09 61.50 61.55 60.93 60.94 61.52 61.40 61.23 61.96 62.14 62.50 62.64 61.91 61.05 60.62 61.70 61.50 62.10 62.10 61.37 60.85 60.20 59.62 59.16 59.27 58.86 57.84 57.71 57.22 56.62
66.78 66.39 64.93 62.42 60.34 58.64 58.15 58.63 58.37 58.37 58.46 60.43 57.46 57.77 54.08 55.90 59.66 60.06 61.24 61.08 62.70 61.45 60.92 61.78 61.47 62.41 62.02 61.19 60.32 61.27 61.37 61.87 61.73 61.14 60.78 60.41 59.99 59.57 59.25 57.92 57.84 57.48 57.39
66.35 66.20 65.22 62.69 60.58 59.25 57.76 57.77 58.25 58.21 56.81 58.42 58.93 57.91 52.50 51.85 56.15 59.53 59.99 60.38 61.85 61.60 61.51 61.24 61.62 61.72 62.40 62.04 60.30 59.48 57.71 58.32 61.39 62.15 61.82 61.12 60.45 59.89 59.36 58.09 57.82 57.77 57.75
65.17 65.47 64.44 61.79 61.11 59.05 57.98 58.37 59.14 58.69 58.06 56.39 58.14 59.78 58.13 57.33 53.83 53.07 58.33 58.56 59.91 60.41 62.09 61.95 61.66 61.88 61.62 61.16 60.17 57.54 54.81 54.58 56.63 60.15 62.03 61.73 61.40 60.82 60.43 59.74 59.36 58.97 58.50
64.66 64.49 63.61 63.61 61.08 60.46 59.23 59.49 59.68 60.27 59.43 57.51 57.64 57.82 58.39 58.25 59.05 55.93 52.98 55.46 58.46 58.84 60.26 61.11 61.42 61.89 61.60 61.44 61.42 59.23 53.35 52.83 53.76 57.11 59.63 61.20 62.01 61.73 61.36 61.01 60.65 60.36 60.26
63.46 64.54 63.65 62.29 61.75 60.74 60.09 59.45 60.18 60.24 59.89 59.35 58.38 58.78 57.76 56.83 56.47 55.93 55.98 56.53 56.17 58.03 59.67 61.25 61.24 61.65 62.16 62.13 60.15 55.43 52.44 51.08 52.32 54.72 56.95 58.60 60.11 61.48 62.08 62.10 61.84 61.79 61.42
61.92 63.50 64.03 63.12 60.95 60.34 60.90 59.12 59.29 58.89 59.27 58.29 58.73 59.17 59.94 59.77 60.16 58.90 57.87 55.77 54.26 56.39 58.49 60.96 61.14 61.53 60.94 62.19 61.28 55.08 52.79 50.12 50.84 52.86 54.49 56.02 57.19 58.14 59.34 60.39 61.33 62.18 62.16
61.47 62.29 62.50 63.20 62.51 61.52 59.92 59.16 58.86 58.46 59.01 58.77 58.96 58.97 58.75 59.46 58.26 57.54 55.34 53.57 51.67 52.77 56.20 56.83 60.90 61.16 61.39 61.06 59.55 53.16 59.14 49.75 49.46 50.28 51.97 53.39 54.33 55.01 55.55 56.50 57.52 58.39 59.37
61.53 61.86 62.41 62.36 61.26 61.28 60.18 58.42 57.46 56.43 57.07 57.59 57.96 59.99 56.78 56.89 56.97 57.15 56.47 55.51 52.27 48.79 49.82 55.24 57.32 61.31 61.23 61.71 59.52 60.88 60.81 54.41 49.07 48.74 49.03 50.12 51.93 52.98 53.39 53.96 54.57 55.42 56.29
60.82 61.10 61.08 61.22 61.85 60.95 60.04 58.96 57.64 57.29 57.28 57.41 57.41 57.61 57.34 57.32 57.00 56.67 56.03 55.24 54.19 52.12 49.68 54.19 54.61 57.48 61.00 60.84 60.40 62.05 62.42 54.77 50.06 47.64 47.57 48.12 49.28 50.81 51.30 51.53 51.98 52.72 53.68
60.55 60.22 60.72 59.57 58.28 57.88 58.32 58.84 58.74 57.98 56.78 56.19 56.13 56.05 55.93 56.19 55.55 55.67 55.99 55.36 54.56 54.11 51.42 53.28 55.09 55.90 58.01 58.96 59.67 61.79 61.23 61.82 61.19 47.94 46.86 47.20 47.31 47.84 48.48 48.94 49.34 50.17 51.17
60.08 60.01 60.55 58.79 59.14 58.32 57.79 57.04 55.53 55.55 55.13 54.49 55.00 54.98 54.80 54.93 54.83 55.17 54.95 54.42 54.21 53.93 52.34 50.80 53.64 54.13 55.65 59.65 57.97 58.41 60.05 60.16 61.52 53.53 48.25 46.99 46.90 46.74 46.86 46.77 47.20 47.63 48.12
59.23 59.81 60.09 59.09 58.48 58.67 58.05 57.28 56.61 56.11 56.07 56.21 56.23 55.08 54.63 53.88 53.68 55.05 55.88 56.03 55.93 55.17 56.36 53.63 53.74 56.76 57.58 59.15 58.04 58.39 59.05 58.36 59.73 54.86 47.85 46.24 46.20 46.49 46.72 46.31 46.52 46.82 46.77
58.67 58.51 58.87 59.09 58.00 57.80 58.16 58.13 57.99 57.73 57.48 57.80 57.93 57.30 56.48 56.18 55.77 56.78 57.31 57.27 56.93 56.45 54.33 53.37 53.72 55.86 57.03 58.87 57.79 56.51 57.41 59.86 59.51 60.79 56.03 53.23 51.19 48.58 47.35 47.19 46.42 46.11 46.04
58.31 58.31 58.35 58.67 58.65 57.96 57.86 58.39 58.07 57.21 57.40 57.46 57.44 57.34 57.56 55.84 50.38 53.48 57.52 57.44 57.39 56.33 54.44 54.63 53.76 52.63 52.81 54.06 55.86 56.85 54.06 56.55 58.75 60.22 59.74 60.25 60.11 59.35 45.03 41.53 41.80 41.99 41.95
58.19 57.99 57.93 58.35 58.97 58.28 38.79 44.02 52.12 58.18 57.80 57.73 57.22 57.68 58.56 50.87 50.32 44.46 44.88 44.69 50.66 57.44 55.93 53.98 53.61 53.23 54.24 55.57 57.39 56.16 55.69 55.28 53.98 59.56 51.71 56.08 46.49 37.37 37.24 38.01 38.14 38.31 38.28
58.18 57.61 57.48 57.59 50.04 42.06 36.94 38.11 39.65 56.47 57.62 57.93 57.39 56.47 57.33 58.02 51.28 56.72 47.24 42.62 43.70 43.35 41.47 54.69 54.21 53.69 53.67 50.37 45.36 48.43 49.85 49.36 48.87 43.98 45.92 46.26 35.61 31.75 33.78 34.76 35.84 35.88 35.79
44.37 44.76 44.15 43.78 41.04 36.93 35.47 36.36 36.32 51.95 53.53 51.53 42.30 41.79 44.15 44.86 37.68 41.13 46.81 50.05 46.27 39.44 39.21 44.40 43.24 37.29 34.42 34.13 37.34 41.26 42.14 42.76 43.57 35.46 35.85 36.83 32.68 29.25 30.97 32.13 33.84 34.40 34.29
36.87 36.35 36.56 36.56 36.01 34.55 34.70 35.77 39.02 47.20 46.86 37.60 34.90 34.46 36.91 35.81 34.12 36.05 43.12 44.65 35.79 32.11 33.07 32.69 31.90 31.41 31.24 31.08 31.43 37.70 34.58 34.79 36.29 32.68 28.44 32.65 31.67 28.64 28.80 29.21 31.14 32.32 32.74
33.84 33.56 32.37 32.96 32.91 32.08 33.82 35.24 41.49 45.21 35.26 32.09 31.47 31.43 32.00 32.41 32.21 33.57 38.34 39.58 38.04 31.28 29.49 28.77 27.98 27.69 27.77 28.22 28.05 27.69 29.13 33.18 32.62 31.65 27.62 28.70 30.72 29.68 26.28 29.67 31.07 32.21 32.23
MSLP
1011.65 1011.78 1012.27 1012.62 1012.65 1013.36 1014.03 1014.88 1015.46 1016.16 1016.48 1017.09 1017.10 1016.64 1016.59 1016.21 1016.69 1017.68 1018.74 1019.68 1020.11 1020.49 1020.95 1021.46 1021.78 1022.17 1022.68 1023.23 1023.76 1023.90 1024.17 1024.50 1025.12 1025.50 1025.88 1026.12 1026.35 1026.61 1026.85 1027.07 1027.26 1027.43 1027.64
1011.32 1011.61 1012.25 1012.76 1013.20 1013.50 1014.05 1014.45 1015.11 1015.71 1016.15 1016.75 1016.53 1016.19 1016.12 1015.74 1016.50 1017.46 1018.34 1019.57 1020.27 1020.53 1020.89 1021.39 1021.70 1022.20 1022.67 1023.36 1023.79 1024.09 1024.38 1024.71 1025.07 1025.49 1025.91 1026.28 1026.56 1026.84 1027.11 1027.36 1027.55 1027.72 1027.87
1011.16 1011.60 1012.10 1012.69 1012.96 1013.29 1013.70 1014.27 1014.77 1015.26 1015.86 1014.81 1015.81 1015.80 1015.51 1015.49 1016.26 1017.42 1018.26 1019.05 1020.17 1020.63 1020.99 1021.33 1021.67 1022.16 1022.62 1023.40 1023.80 1024.16 1024.46 1024.78 1025.15 1025.50 1025.87 1026.28 1026.65 1026.92 1027.21 1027.50 1027.66 1027.84 1027.93
1010.93 1011.29 1011.69 1012.11 1012.46 1013.08 1013.66 1014.22 1014.78 1015.25 1015.53 1015.49 1015.42 1015.33 1015.37 1015.85 1016.19 1016.93 1017.78 1018.70 1019.64 1020.12 1021.07 1021.30 1021.74 1022.09 1022.56 1023.38 1023.68 1024.06 1024.40 1024.72 1025.08 1025.44 1025.80 1026.20 1026.53 1026.85 1027.18 1027.45 1027.66 1027.85 1027.98
1010.69 1010.98 1011.37 1011.66 1012.02 1012.61 1013.52 1014.07 1014.63 1014.83 1015.30 1015.63 1015.65 1014.85 1015.50 1015.91 1016.24 1016.62 1017.53 1018.50 1019.12 1019.82 1020.30 1021.22 1021.73 1022.05 1022.61 1023.16 1023.58 1023.88 1024.19 1024.52 1024.87 1025.25 1025.66 1026.01 1026.36 1026.69 1027.06 1027.36 1027.55 1027.75 1027.92
1010.24 1010.64 1011.10 1011.47 1011.90 1012.71 1013.39 1013.95 1014.41 1014.43 1014.64 1015.36 1015.79 1015.34 1015.56 1015.82 1016.01 1016.63 1016.99 1017.92 1019.20 1019.76 1019.77 1020.65 1021.55 1021.96 1022.47 1023.02 1023.37 1023.74 1023.97 1024.26 1024.65 1025.01 1025.41 1025.80 1026.15 1026.46 1026.77 1027.11 1027.41 1027.59 1027.79
1009.69 1010.39 1010.87 1011.72 1012.29 1012.69 1013.18 1013.60 1013.98 1014.10 1014.72 1015.47 1015.92 1016.02 1016.26 1016.46 1016.81 1017.25 1017.85 1017.44 1018.39 1019.41 1019.73 1020.41 1020.78 1021.28 1022.14 1022.82 1023.17 1023.50 1023.70 1024.00 1024.20 1024.59 1024.99 1025.45 1025.82 1026.22 1026.52 1026.81 1027.05 1027.28 1027.44
1009.37 1009.97 1010.74 1011.56 1012.21 1012.76 1013.36 1013.62 1013.81 1014.00 1014.54 1015.09 1015.50 1015.88 1017.12 1017.79 1017.56 1017.75 1018.07 1018.05 1017.98 1018.77 1019.75 1020.22 1020.45 1020.72 1021.05 1021.97 1022.62 1023.14 1023.43 1023.64 1023.89 1024.21 1024.57 1024.99 1025.41 1025.80 1026.07 1026.34 1026.66 1026.84 1027.00
1009.16 1009.72 1010.50 1011.39 1012.05 1012.65 1013.25 1013.68 1013.95 1014.24 1014.42 1015.11 1015.10 1015.04 1016.62 1017.19 1017.60 1018.02 1018.25 1018.24 1017.98 1018.19 1018.63 1019.57 1020.04 1020.06 1020.18 1020.53 1021.50 1022.44 1023.07 1023.44 1023.62 1023.86 1024.18 1024.57 1024.95 1025.26 1025.65 1025.83 1026.11 1026.32 1026.48
1009.04 1009.55 1010.35 1011.12 1011.66 1012.60 1013.10 1013.59 1013.98 1014.27 1014.12 1014.55 1015.35 1015.71 1015.75 1016.47 1017.13 1017.68 1018.13 1018.42 1018.40 1018.17 1018.23 1018.43 1018.85 1019.41 1019.73 1020.35 1020.68 1021.21 1022.07 1022.86 1023.32 1023.56 1023.68 1023.97 1024.30 1024.69 1025.05 1025.23 1025.43 1025.66 1025.84
1008.57 1009.33 1009.98 1010.66 1011.31 1012.16 1012.77 1013.13 1013.76 1014.01 1014.24 1014.50 1014.85 1015.45 1016.03 1016.19 1016.27 1016.35 1017.02 1018.09 1018.47 1018.49 1018.13 1018.27 1018.25 1018.76 1019.42 1020.01 1020.33 1020.64 1021.29 1022.07 1022.62 1022.99 1023.34 1023.48 1023.61 1023.89 1024.11 1024.41 1024.62 1024.80 1025.01
1008.14 1008.68 1009.54 1010.30 1010.91 1011.63 1012.25 1012.82 1013.38 1013.75 1014.08 1014.59 1014.84 1015.06 1015.20 1015.33 1015.61 1015.80 1015.90 1016.89 1017.73 1018.09 1018.36 1017.88 1018.23 1018.36 1018.71 1019.13 1019.60 1020.09 1020.76 1021.25 1021.82 1022.21 1022.63 1022.88 1023.04 1023.26 1023.32 1023.45 1023.65 1023.83 1023.98
1007.61 1007.97 1008.70 1009.58 1010.44 1010.97 1011.78 1012.40 1013.06 1013.53 1013.83 1014.14 1014.41 1014.69 1014.75 1014.73 1015.04 1015.38 1015.56 1016.62 1017.44 1017.64 1017.74 1017.58 1017.59 1018.09 1018.41 1018.60 1018.95 1019.59 1020.13 1020.48 1020.86 1021.29 1021.66 1022.03 1022.17 1022.41 1022.58 1022.70 1022.85 1022.91 1023.02
1007.28 1007.74 1008.27 1008.92 1009.74 1010.57 1011.20 1012.03 1012.49 1013.07 1013.36 1013.68 1014.03 1014.44 1014.62 1014.62 1015.03 1015.50 1015.92 1016.25 1017.37 1017.87 1017.64 1017.35 1017.27 1017.53 1017.86 1018.22 1018.53 1019.09 1019.27 1019.75 1020.09 1020.42 1020.60 1020.90 1021.15 1021.35 1021.55 1021.63 1021.82 1022.03 1022.09
1006.74 1007.44 1007.76 1008.37 1009.33 1010.15 1010.92 1011.52 1012.12 1012.76 1013.10 1013.37 1013.75 1014.10 1014.66 1014.83 1015.10 1015.34 1015.77 1016.07 1016.80 1017.86 1017.64 1017.01 1016.88 1017.01 1017.38 1017.60 1017.94 1018.18 1018.49 1018.65 1019.09 1019.45 1019.86 1020.26 1020.52 1020.58 1020.76 1020.94 1021.04 1021.00 1021.06
1006.67 1007.27 1007.74 1008.30 1008.88 1009.68 1010.44 1011.18 1011.71 1012.34 1012.80 1013.30 1013.61 1013.92 1014.44 1014.77 1015.12 1015.40 1015.77 1016.27 1016.70 1017.07 1017.17 1016.77 1016.62 1016.22 1016.36 1016.50 1016.62 1017.04 1017.39 1017.82 1018.15 1018.54 1018.81 1019.09 1019.25 1019.43 1019.68 1019.89 1019.93 1019.89 1019.89
1006.54 1007.02 1007.43 1008.29 1009.04 1009.72 1010.20 1010.59 1011.19 1011.76 1012.26 1012.78 1013.29 1013.67 1014.08 1014.42 1014.74 1015.12 1015.54 1016.02 1016.35 1016.88 1016.89 1016.61 1016.50 1016.38 1016.28 1016.28 1016.28 1016.32 1016.56 1016.95 1017.04 1017.59 1017.55 1017.71 1017.48 1017.84 1018.26 1018.40 1018.60 1018.59 1018.63
1006.39 1006.90 1007.30 1007.94 1008.71 1009.45 1010.00 1010.40 1010.98 1011.45 1011.96 1012.38 1012.75 1013.25 1013.59 1013.98 1014.33 1014.64 1015.11 1015.57 1015.93 1016.29 1016.60 1016.56 1016.30 1016.03 1015.79 1015.80 1016.03 1016.20 1016.19 1016.06 1015.86 1015.92 1016.62 1016.91 1016.68 1016.79 1016.96 1016.88 1016.92 1016.88 1017.05
1006.30 1006.67 1007.15 1007.56 1008.22 1008.92 1009.59 1010.18 1010.62 1011.03 1011.41 1011.77 1012.21 1012.71 1013.11 1013.58 1013.92 1014.23 1014.50 1014.81 1015.14 1015.38 1015.61 1016.00 1015.80 1015.59 1015.16 1015.03 1015.32 1015.35 1015.22 1015.47 1015.34 1015.18 1015.39 1015.67 1015.91 1016.17 1016.03 1015.71 1015.56 1015.74 1015.66
1006.21 1006.64 1007.07 1007.60 1008.33 1008.73 1009.12 1009.43 1009.87 1010.28 1010.65 1011.00 1011.38 1011.85 1012.30 1012.64 1013.02 1013.25 1013.36 1013.74 1014.15 1014.59 1015.05 1015.17 1015.06 1014.94 1014.78 1014.43 1014.56 1014.50 1014.39 1014.15 1014.01 1013.87 1013.65 1013.69 1013.93 1014.23 1014.01 1014.07 1014.53 1015.13 1015.25
1006.28 1006.74 1007.24 1007.76 1008.33 1008.81 1009.08 1009.34 1009.64 1010.13 1010.26 1010.40 1010.88 1011.20 1011.58 1011.79 1011.98 1012.36 1012.74 1013.11 1013.36 1013.84 1014.36 1014.49 1014.45 1014.69 1014.41 1014.11 1013.91 1013.92 1013.95 1013.48 1012.88 1012.87 1012.87 1012.78 1012.82 1013.01 1015.41 1015.75 1015.67 1015.63 1015.36
1006.16 1006.66 1007.11 1007.68 1008.05 1008.40 1009.69 1009.37 1009.45 1009.57 1009.87 1010.08 1010.24 1010.66 1010.88 1011.41 1011.84 1012.22 1012.57 1012.87 1012.95 1013.06 1013.38 1013.86 1013.97 1013.88 1013.75 1013.93 1013.70 1013.88 1013.63 1013.27 1012.77 1012.63 1013.74 1013.20 1014.10 1015.77 1016.66 1017.01 1017.10 1016.00 1015.51
1006.17 1006.99 1007.39 1007.77 1009.08 1010.19 1010.58 1010.25 1010.05 1009.88 1009.90 1010.14 1010.41 1010.70 1010.79 1010.98 1011.46 1011.80 1012.08 1012.31 1012.42 1012.56 1013.03 1013.58 1013.71 1013.81 1013.88 1014.19 1014.56 1014.36 1014.21 1014.22 1014.35 1014.84 1014.85 1015.08 1016.14 1016.88 1017.66 1017.54 1017.29 1016.87 1016.66
1007.59 1008.19 1009.42 1009.67 1010.45 1011.26 1011.22 1010.81 1010.49 1010.29 1010.44 1011.01 1012.03 1012.35 1012.36 1012.41 1012.96 1012.90 1012.71 1012.56 1013.03 1013.77 1013.81 1013.85 1014.36 1015.23 1015.65 1015.65 1015.55 1015.23 1015.14 1015.07 1015.10 1015.88 1016.10 1016.37 1016.89 1017.63 1018.38 1018.37 1017.99 1017.66 1017.07
1009.48 1010.20 1010.96 1011.11 1011.51 1011.96 1011.74 1011.13 1010.70 1010.66 1011.21 1012.54 1013.26 1013.50 1013.35 1013.44 1013.59 1013.12 1012.69 1013.17 1014.00 1015.12 1015.57 1015.59 1015.92 1016.12 1016.25 1016.33 1015.92 1015.41 1015.64 1015.68 1015.69 1016.59 1017.63 1017.20 1017.18 1017.87 1018.35 1018.66 1018.56 1018.34 1018.27
1011.63 1011.89 1012.20 1012.43 1012.75 1012.86 1012.53 1011.90 1011.12 1011.24 1012.38 1013.48 1014.17 1014.36 1014.40 1014.45 1013.95 1013.46 1013.31 1013.48 1014.19 1015.53 1016.02 1016.39 1017.12 1017.05 1017.15 1017.03 1017.34 1017.42 1016.74 1016.58 1016.94 1017.41 1018.29 1018.18 1017.77 1017.87 1018.35 1018.68 1018.72 1018.73 1018.73
Wind_Speed
8 8 7 6 7 6 7 7 8 8 10 12 13 15 12 12 12 8 7 11 13 16 17 16 17 17 16 15 15 15 14 14 12 12 11 10 11 10 10 11 10 10 9
8 8 7 7 6 6 6 8 9 9 9 10 15 15 12 8 17 11 9 10 11 13 15 17 17 17 16 15 15 13 13 13 12 12 12 10 10 10 9 9 9 9 9
10 10 8 7 5 6 7 8 9 7 7 10 15 13 9 9 14 12 10 10 11 10 12 13 15 16 15 15 15 15 14 13 14 13 12 12 11 11 10 10 9 9 9
12 11 7 7 8 6 6 7 8 9 8 7 8 10 7 8 9 14 12 10 10 10 9 12 13 14 15 14 16 15 15 14 14 14 14 13 13 12 11 11 10 10 10
13 10 8 8 8 7 5 8 7 12 9 5 6 10 9 8 9 9 16 13 11 8 8 12 12 13 14 15 16 16 16 16 15 15 15 15 14 13 13 12 12 12 11
11 11 6 8 7 5 6 7 9 9 9 7 6 6 8 3 9 8 7 13 11 6 9 13 10 9 12 14 15 16 17 17 17 16 16 16 15 15 14 14 14 13 13
11 10 7 7 6 6 7 8 7 10 5 8 7 3 4 4 7 6 6 8 13 10 10 8 9 8 9 13 15 17 18 19 19 18 17 17 16 15 14 15 16 16 15
10 9 10 8 9 6 6 8 6 7 3 7 8 9 5 2 1 4 7 7 11 10 10 8 9 13 12 11 13 16 18 18 19 19 18 17 16 15 16 17 17 18 18
9 11 11 10 9 8 7 7 8 7 8 3 11 5 4 3 7 6 8 9 7 9 11 12 14 12 12 11 14 15 15 14 14 18 18 17 17 17 18 19 19 19 20
11 11 12 9 11 7 8 8 8 5 8 9 4 1 3 7 5 5 7 6 7 9 10 10 11 12 11 8 10 14 19 16 14 12 17 19 19 20 21 21 21 21 22
12 12 10 14 10 9 9 10 11 9 7 8 7 6 8 9 10 8 8 8 7 6 8 8 9 10 11 11 9 8 15 18 17 16 16 15 19 21 22 22 22 22 23
7 13 14 11 12 11 11 10 10 12 10 9 7 9 10 9 8 8 8 12 11 10 9 8 9 7 9 10 11 9 15 16 17 17 18 19 18 18 19 22 24 24 25
9 12 12 13 10 13 13 11 10 11 11 11 13 11 10 8 8 7 7 7 5 5 7 11 8 9 9 8 9 13 12 16 17 18 18 20 20 21 21 21 21 23 24
10 10 9 10 15 13 10 11 10 9 10 10 12 8 8 7 3 3 3 5 3 1 4 6 9 9 8 7 9 12 13 17 17 17 19 22 21 21 22 22 23 23 25
10 12 12 12 12 14 12 11 8 10 9 9 10 9 5 3 3 4 3 4 7 5 8 8 8 11 9 9 12 13 13 14 18 20 17 17 19 20 20 20 22 23 24
9 11 11 9 12 12 12 12 9 10 11 8 6 8 8 6 6 5 5 4 3 5 6 5 5 6 11 9 11 12 13 13 16 18 21 23 22 22 22 22 23 23 24
10 11 10 9 8 7 6 10 10 9 10 10 9 9 9 8 7 7 6 6 5 6 8 7 6 4 5 9 9 8 10 12 11 19 21 24 23 23 23 24 24 24 25
11 11 11 11 10 10 9 9 8 8 10 10 10 11 10 7 9 9 7 7 7 8 5 10 9 9 11 11 7 12 11 12 12 15 21 20 20 23 24 24 27 28 26
9 11 11 11 11 11 11 10 10 11 11 12 12 12 12 10 10 9 11 11 10 8 9 7 8 9 9 8 10 10 9 12 10 14 13 17 18 20 23 23 24 25 26
10 8 8 8 8 7 9 10 11 10 10 11 12 13 13 15 15 15 12 12 10 10 8 9 10 10 10 10 9 9 11 11 12 13 16 17 17 24 28 26 22 19 20
8 8 8 7 9 7 7 9 11 10 10 11 12 12 13 13 12 12 10 13 12 10 9 10 12 10 12 11 11 10 12 13 13 12 12 12 10 9 9 12 9 12 11
8 8 7 7 7 4 11 6 7 8 9 8 8 9 11 8 10 13 15 14 12 13 14 10 11 13 16 13 11 12 13 13 14 4 6 4 8 7 8 8 15 17 19
7 6 3 6 9 10 16 13 9 9 5 7 7 7 8 8 7 11 14 17 18 18 10 10 12 11 9 5 5 5 5 6 5 6 6 4 4 6 6 7 14 17 18
11 10 10 11 10 11 15 12 9 4 5 5 8 7 6 6 9 7 4 3 6 10 8 3 3 6 6 6 2 3 4 5 2 4 4 2 2 3 3 4 16 16 16
12 11 10 12 11 11 18 14 7 1 6 11 11 13 9 9 13 7 2 3 9 9 17 24 21 19 20 21 15 2 3 2 1 3 7 3 2 2 2 3 4 13 14
11 9 12 12 14 12 21 18 9 5 10 8 9 11 20 14 17 17 7 3 6 5 7 9 8 13 15 14 19 10 4 1 2 1 5 4 1 2 2 1 3 4 3
Wind_Direction
200 198 204 210 202 172 189 186 175 179 185 205 220 195 197 222 132 133 142 154 157 158 158 165 162 156 156 156 156 144 139 138 155 156 152 154 159 145 144 142 143 143 143
201 199 193 197 201 197 202 197 188 191 189 203 214 195 199 190 126 137 143 159 161 159 165 173 163 162 159 159 151 150 149 157 165 163 168 168 157 161 161 155 157 158 158
211 200 194 194 214 212 199 192 182 181 195 206 190 192 198 155 138 142 143 156 162 162 166 170 165 163 158 168 162 164 168 173 174 173 175 174 174 172 176 175 176 178 176
211 213 207 211 219 205 182 171 175 181 201 208 190 188 153 168 168 146 156 167 168 171 171 165 165 162 161 177 172 174 180 182 182 180 184 186 186 184 190 193 192 195 195
216 223 210 213 210 204 170 174 191 188 182 192 203 189 138 200 163 179 142 163 163 160 179 161 164 161 170 178 182 188 191 189 192 194 193 195 196 197 199 204 206 206 209
209 216 203 212 219 183 182 186 181 180 169 173 198 195 143 181 161 153 178 154 154 180 192 167 177 178 175 181 187 197 201 199 200 202 202 202 205 207 208 211 216 218 218
205 218 202 156 165 163 176 175 177 160 144 168 166 128 131 75 121 130 181 202 161 172 185 182 177 187 182 191 193 200 213 208 205 207 207 210 212 213 215 220 222 224 226
221 214 175 166 155 141 150 159 152 151 106 158 145 125 138 41 109 155 186 226 165 178 188 203 192 203 187 191 203 205 218 224 214 212 211 211 214 218 219 223 228 230 231
202 211 183 158 153 153 159 163 159 172 154 133 171 117 138 147 158 185 188 207 230 184 191 187 205 214 213 188 181 194 208 234 237 218 217 214 215 218 224 226 231 234 236
210 196 177 162 156 155 164 169 165 169 169 149 169 294 94 120 193 174 207 213 233 230 211 192 200 204 213 215 208 190 187 210 232 245 227 217 216 219 225 226 229 232 237
204 184 191 181 169 171 174 173 184 178 177 165 178 173 198 201 197 185 187 188 208 223 236 218 221 203 206 215 218 207 175 198 214 226 237 243 231 224 226 228 231 233 236
199 203 180 180 178 181 180 179 185 188 182 192 192 196 206 199 193 215 198 183 195 196 218 227 213 233 206 206 219 211 183 189 205 218 227 234 236 242 238 235 236 238 238
200 198 188 187 189 183 182 176 187 192 194 194 192 208 207 207 208 220 214 159 169 222 206 220 210 210 232 217 218 210 197 202 205 212 221 230 232 238 241 243 246 247 247
201 206 194 187 185 183 175 181 190 189 198 201 205 209 229 210 164 173 159 134 120 263 214 215 210 216 213 219 219 212 224 211 212 219 218 225 230 233 237 238 241 247 250
171 193 199 204 173 182 176 172 179 194 192 199 212 203 186 182 169 183 162 152 157 187 230 215 219 205 215 211 220 217 223 218 212 217 222 229 235 241 245 244 244 245 251
181 187 180 197 184 173 179 176 179 187 192 195 197 205 206 195 183 161 144 145 158 190 223 237 249 222 199 218 209 211 224 219 213 213 216 220 225 232 239 243 243 244 246
179 178 173 150 159 161 157 181 174 177 189 195 197 199 201 183 184 180 178 185 179 201 233 244 263 276 217 210 247 236 222 232 228 215 217 218 216 220 229 235 240 240 242
177 173 164 159 176 181 179 176 171 177 185 187 193 201 203 178 190 185 179 193 202 209 204 247 253 262 248 233 226 229 241 234 231 212 212 226 222 221 226 227 232 235 238
176 173 174 166 171 180 182 185 186 191 197 203 199 197 196 190 199 206 206 207 212 215 207 223 248 257 256 241 244 242 245 251 252 250 213 222 225 233 239 241 239 238 242
172 177 183 165 172 186 190 192 196 198 203 210 210 210 207 211 215 218 215 209 212 220 227 238 247 252 265 260 258 257 257 245 243 245 236 232 221 227 235 239 249 259 265
165 177 175 190 176 189 210 201 195 197 217 204 201 210 214 221 220 220 212 222 227 222 229 233 243 245 249 256 250 254 255 262 257 251 256 258 260 247 34 42 26 15 5
167 171 180 195 189 178 6 298 249 222 229 239 230 226 232 214 220 221 233 249 250 233 236 236 247 252 253 251 255 256 255 259 268 312 4 306 46 49 50 36 36 56 65
158 154 178 190 75 51 14 14 8 252 268 258 259 252 247 245 221 236 232 233 240 244 229 248 245 249 273 343 358 321 314 335 334 0 7 346 43 63 45 52 60 64 59
67 70 56 65 72 40 15 10 1 266 265 66 49 21 17 34 30 355 329 33 48 47 16 0 3 34 41 0 306 307 314 309 305 70 9 273 68 77 46 37 48 51 63
58 63 59 58 59 37 15 8 355 347 76 74 61 43 35 36 11 0 54 30 92 86 69 73 75 72 56 41 27 360 34 46 321 79 15 342 89 91 59 43 43 52 50
63 62 63 53 51 42 26 19 25 66 90 82 64 53 47 46 37 26 36 15 106 107 87 73 46 50 45 48 41 34 12 28 18 101 24 6 48 120 100 66 52 33 43